Helicity
46 53 56 50 57 52 39 42 38 35 30 22 24 39 48 50 57 44 82 54 68 95 62 101 163 136 176 159 333 217 68 112 56 -5 43 12 36 49 67 31 7 39 42 97 64
45 52 71 67 59 56 49 44 40 40 40 34 24 37 47 43 66 106 75 66 48 83 81 126 159 161 123 89 31 84 59 87 59 18 18 39 23 16 15 20 11 109 131 84 48
62 58 59 66 76 68 56 46 42 42 43 36 31 39 51 53 54 21 66 62 81 119 94 61 19 10 47 74 25 69 33 115 20 30 17 37 27 11 25 40 96 106 87 56 43
71 70 64 61 76 78 73 58 52 48 44 37 39 50 58 56 17 -26 2 25 71 70 117 102 79 59 122 68 34 67 27 12 29 14 12 8 -2 33 34 46 99 117 65 42 30
69 70 73 78 71 78 83 70 63 61 57 43 40 51 42 53 25 -8 -12 23 50 57 115 116 121 178 142 36 45 103 15 34 6 -3 6 19 -11 32 68 53 95 105 52 35 17
73 75 74 77 91 82 86 84 76 74 65 54 41 51 26 84 36 28 5 29 48 58 117 63 41 41 64 83 92 20 31 36 4 16 -6 10 48 -7 69 41 110 80 43 23 11
73 77 79 87 88 95 91 91 90 85 73 55 36 24 17 25 48 20 36 40 39 103 60 12 -6 45 52 -53 9 24 17 23 43 13 -1 3 40 44 72 42 80 53 34 18 14
64 73 81 87 94 90 96 100 100 86 74 50 23 16 6 20 4 30 38 47 61 80 54 26 31 23 65 21 17 -64 -45 -69 46 33 64 14 54 100 23 47 51 50 32 28 13
70 68 78 95 98 91 92 103 103 66 35 37 15 -4 42 49 8 25 37 45 73 66 69 52 42 73 67 -26 -20 -1 -10 -6 -35 13 69 111 54 -4 39 45 58 38 44 38 21
80 79 81 88 99 97 112 74 29 64 9 -16 27 20 21 34 7 27 29 26 10 27 45 81 87 63 134 52 42 105 96 104 111 17 -10 73 99 21 -18 61 74 47 57 40 40
83 91 86 87 94 92 94 21 4 -1 -15 -18 54 16 40 31 40 23 28 26 13 28 24 42 55 39 76 47 46 17 140 57 -1 83 -77 23 39 22 20 29 66 83 89 56 43
88 95 104 98 89 79 20 13 75 68 49 59 36 31 33 43 10 15 20 13 29 17 60 66 45 52 -14 28 2 12 2 13 44 86 18 3 14 25 115 37 27 71 101 62 35
105 98 103 114 105 19 -17 36 43 51 33 46 40 -13 -7 16 6 34 31 18 0 23 10 6 22 115 34 23 6 78 49 73 30 -11 29 69 25 53 85 38 48 28 88 65 55
100 111 91 162 12 20 -7 10 22 7 23 -6 97 37 -15 15 -15 8 76 9 4 -24 -3 -7 15 77 89 23 -15 12 4 -17 50 13 57 53 60 3 42 69 155 -14 68 74 52
89 112 107 48 33 23 73 22 19 -3 82 40 52 10 22 36 -18 30 -23 28 -27 9 10 -8 -27 19 28 -13 -31 -30 11 -11 -9 -9 172 172 98 -16 92 -4 -1 -1 42 46 53
104 104 107 6 -15 -5 83 38 4 29 37 31 115 53 54 20 -4 -1 35 24 -5 -9 -34 -28 -6 -4 -29 -3 26 2 10 22 34 5 30 73 107 75 255 219 162 118 43 39 43
135 113 40 45 55 47 25 13 34 -2 3 41 65 37 19 41 7 -36 47 15 17 2 -2 -2 -6 -18 13 -33 -22 8 23 36 12 47 51 -9 38 99 105 331 74 42 15 48 72
186 132 6 19 41 40 53 14 37 -25 -51 34 17 30 17 -15 33 -26 31 20 23 -25 -66 31 17 112 52 28 -7 -36 40 50 32 62 33 47 62 18 72 223 242 44 30 33 43
262 18 36 22 -12 59 46 21 -28 -43 33 36 19 27 24 6 6 -9 29 0 31 57 -13 -51 -28 15 23 42 42 15 28 17 11 269 159 199 124 -116 106 35 -18 20 50 16 3
59 39 17 39 31 46 68 -32 -42 -76 45 50 2 18 3 31 30 16 27 32 -16 9 45 -7 -32 -3 27 29 5 19 25 24 14 16 21 39 133 187 252 279 20 18 28 13 -16
35 46 134 50 28 81 57 0 -15 37 26 34 9 1 -2 -18 41 21 31 9 26 6 -1 4 17 -39 -4 49 1 18 24 -6 17 14 18 64 96 157 154 343 25 35 37 25 12
76 79 68 58 58 63 42 5 47 19 24 22 23 46 49 38 3 21 34 9 25 30 2 23 3 18 -21 22 33 15 11 8 2 10 -2 1 65 -105 -76 71 -5 57 28 8 -19
71 29 32 18 76 49 22 15 22 16 13 21 12 10 15 32 25 33 30 27 114 61 56 26 33 -2 2 2 50 41 7 17 36 -1 16 20 73 -46 -25 -9 64 105 135 153 99
90 82 34 15 38 83 41 15 11 1 27 36 42 36 39 32 28 21 16 46 78 49 95 60 50 25 -6 12 55 82 21 -10 3 14 20 92 45 93 3 54 72 86 98 167 301
62 71 112 30 12 27 87 35 30 15 35 20 46 47 44 31 16 18 6 47 86 106 88 69 29 53 55 45 5 42 63 64 -7 29 36 96 181 520 72 48 16 60 97 145 221
176 176 189 145 65 75 23 49 56 34 39 28 31 31 38 18 16 44 32 33 28 115 59 28 20 4 27 38 40 30 12 26 20 30 25 115 172 106 -150 4 95 106 93 111 150
46 112 92 139 76 44 36 35 22 11 35 55 78 54 43 35 90 151 83 69 28 95 46 34 28 20 14 14 9 20 14 29 29 28 28 55 114 38 2 49 136 136 134 137 169
Wind_Speed
24 26 28 29 30 31 31 31 31 30 29 28 28 26 26 27 28 30 31 33 37 40 40 40 36 36 39 37 47 51 30 31 15 42 19 19 19 24 29 29 22 28 38 43 48
24 27 30 31 32 33 33 33 33 32 31 30 30 29 28 27 29 33 36 36 37 43 44 43 33 35 30 31 30 29 48 34 41 33 28 20 23 30 30 26 27 34 39 43 45
28 29 30 32 33 34 35 35 34 34 32 31 30 31 30 29 27 34 41 41 42 46 46 34 22 16 35 43 31 28 34 38 43 32 33 30 26 24 24 25 27 30 35 41 41
29 31 32 33 34 36 36 37 37 36 34 33 31 31 31 30 29 33 43 43 43 46 39 37 36 30 25 21 26 20 38 44 41 39 35 28 28 24 28 27 29 32 36 36 37
30 32 34 36 36 37 38 38 39 39 37 35 33 32 32 32 31 39 44 45 44 42 37 26 19 24 30 12 21 24 32 38 35 35 32 32 28 21 24 26 30 32 35 35 36
33 34 35 37 39 39 40 41 41 41 40 38 36 35 36 27 13 40 45 45 45 41 35 23 16 17 20 36 34 27 38 37 39 28 27 28 24 21 24 25 27 30 31 34 35
37 36 37 38 39 41 42 43 43 43 42 41 39 36 40 34 20 40 44 45 44 38 31 23 22 21 12 20 27 27 31 35 35 33 28 26 21 24 18 20 23 27 30 30 33
41 40 39 39 40 42 43 44 45 45 44 43 41 39 38 25 26 38 42 42 39 38 34 31 27 25 22 22 37 23 28 26 34 28 24 20 31 44 6 21 22 25 28 27 30
45 44 42 41 41 42 43 44 46 47 46 43 42 39 40 21 42 40 41 41 38 36 34 33 29 24 37 20 20 24 23 19 50 38 19 20 23 50 52 25 21 23 26 28 28
48 47 46 43 42 43 44 43 38 45 47 44 49 42 45 37 37 36 38 40 36 36 33 32 29 19 27 27 27 31 26 15 24 36 20 15 19 33 45 27 20 20 22 29 29
51 50 48 47 44 43 38 33 30 39 52 44 29 39 21 42 20 33 34 33 34 34 31 31 22 17 24 20 17 10 9 18 14 23 34 15 9 21 22 27 24 18 20 25 31
53 52 51 49 48 46 37 29 42 43 49 50 62 47 46 13 21 26 27 29 30 25 29 25 17 19 34 18 15 13 28 23 34 16 7 13 1 58 58 39 28 25 27 28 28
55 54 53 52 50 38 13 49 51 48 56 53 44 46 21 14 26 19 25 25 26 17 28 26 5 19 15 19 8 28 26 14 23 29 21 44 13 51 20 37 11 25 29 29 30
57 56 54 53 37 37 23 41 54 46 51 60 31 30 33 19 34 48 20 24 19 24 20 18 11 9 18 9 13 22 27 39 23 41 41 31 59 57 61 56 55 28 24 24 30
59 58 55 47 45 33 32 31 36 36 39 11 13 10 24 31 11 22 21 10 24 17 5 9 11 4 2 2 12 15 34 44 36 44 27 30 45 39 32 77 66 55 21 19 24
61 59 56 36 31 45 43 38 30 29 41 17 12 12 6 24 15 18 17 16 12 19 23 28 36 16 4 18 14 33 47 19 26 42 39 35 33 16 7 23 72 54 29 22 21
64 61 53 48 25 36 38 28 25 30 18 20 13 13 7 9 12 7 6 12 10 8 10 12 22 19 23 7 6 15 12 21 52 41 54 48 17 12 19 29 49 53 40 33 29
68 64 49 40 46 46 33 22 38 28 37 30 20 14 10 6 7 18 6 9 16 16 11 11 16 14 8 18 8 12 63 57 55 47 41 23 43 32 34 37 42 53 39 26 29
68 41 39 42 18 43 25 28 27 38 41 36 26 12 12 8 12 12 13 14 6 14 15 15 16 55 28 20 14 10 28 63 71 39 26 31 37 19 29 25 29 32 37 35 35
53 52 55 16 12 23 30 35 37 49 48 45 42 22 23 10 13 13 13 10 15 9 16 9 25 46 43 41 33 42 63 62 66 65 56 44 29 34 45 41 25 28 31 33 36
42 37 13 13 12 27 39 42 51 68 42 41 47 50 44 33 16 21 23 21 17 23 23 21 15 19 53 23 37 6 45 64 67 65 66 47 41 16 22 31 23 26 30 33 34
46 45 19 15 27 37 46 48 71 68 43 44 55 53 54 48 51 31 29 31 19 34 22 23 40 13 9 23 9 38 54 53 55 62 65 66 39 12 29 35 18 21 22 22 23
40 40 29 26 41 43 45 65 72 72 58 52 45 55 58 55 52 51 44 47 13 21 38 36 28 36 53 44 2 26 41 61 67 66 68 62 45 10 25 19 13 12 14 15 17
41 36 32 43 59 70 62 56 55 71 75 52 62 61 54 50 55 56 50 25 22 29 35 46 56 60 48 25 38 38 48 35 57 64 60 39 6 9 8 5 10 12 14 13 18
40 44 46 38 47 61 68 67 61 58 49 51 66 67 62 60 60 62 53 53 20 29 41 43 59 68 71 71 59 64 37 67 44 55 64 29 25 20 48 27 17 13 16 15 16
45 44 53 58 54 49 59 65 68 66 52 47 49 65 67 67 71 71 67 57 58 22 32 34 52 58 71 72 71 60 69 63 60 54 57 29 34 14 14 24 16 13 15 15 18
44 49 52 54 55 56 55 57 57 62 64 51 55 58 58 61 60 62 65 63 57 56 30 25 49 55 69 71 70 75 71 66 63 54 61 57 22 9 9 4 4 4 9 12 14
Wind_Direction
231 235 235 240 241 241 241 240 239 235 230 229 225 216 216 220 221 180 170 149 155 132 150 148 157 161 160 171 142 179 228 208 11 95 33 42 3 15 45 64 33 28 94 99 107
242 243 245 246 245 245 246 246 244 240 234 235 236 228 221 225 204 195 186 137 133 133 154 155 162 161 189 169 191 157 111 156 163 72 62 31 36 60 59 41 57 64 81 99 107
261 255 250 247 245 246 250 249 246 242 236 238 237 237 234 233 187 164 142 145 141 144 165 179 169 193 157 157 169 174 149 154 114 63 77 66 46 63 41 58 71 83 94 106 109
273 267 260 252 247 246 246 251 251 245 240 240 238 235 229 192 154 165 144 148 144 159 176 173 126 148 165 187 173 198 114 128 84 102 86 64 62 74 8 85 86 93 104 106 110
279 274 270 262 253 247 245 245 249 248 246 245 241 237 212 173 167 137 140 148 147 160 172 171 152 147 159 212 221 184 12 65 75 90 81 80 76 24 22 45 76 95 107 109 113
285 280 274 268 260 252 248 247 244 243 244 245 248 245 199 183 352 117 135 138 150 160 172 189 196 218 190 122 122 155 89 76 109 43 66 75 11 57 43 60 79 99 108 114 116
294 284 278 271 263 257 251 247 243 237 237 242 250 239 201 193 28 129 136 148 163 175 195 207 203 200 210 219 142 150 112 113 95 106 92 115 50 320 45 66 84 105 113 114 118
301 291 282 273 265 260 255 247 241 235 231 238 247 222 187 290 211 135 147 164 176 193 204 216 217 217 191 159 13 192 36 100 192 108 63 36 291 255 59 94 94 113 120 118 123
305 299 289 278 268 262 256 248 239 233 226 242 214 190 203 298 170 156 156 169 173 187 195 207 206 196 330 156 106 92 90 150 264 175 80 54 31 182 198 124 107 119 124 127 125
306 301 295 284 272 265 258 239 245 248 230 191 211 210 202 169 156 149 157 175 179 190 192 192 193 121 88 140 83 75 77 78 136 199 137 94 119 152 166 134 125 123 124 134 134
306 301 296 289 276 268 273 277 297 267 199 177 150 172 21 183 105 146 149 160 177 182 184 186 173 95 111 152 168 98 130 46 113 8 179 117 53 139 140 142 136 128 131 134 141
304 302 297 290 279 266 275 281 273 283 264 194 210 192 207 86 127 144 138 152 159 161 164 168 167 41 228 190 76 41 31 11 342 42 204 3 355 274 279 215 154 140 142 142 139
302 301 297 291 280 288 320 201 278 282 264 231 184 187 157 122 156 143 151 157 167 148 184 189 106 44 171 188 86 20 24 49 16 350 1 326 338 308 316 264 101 155 148 146 147
302 298 296 291 299 293 308 269 253 287 287 243 177 180 179 171 193 198 155 167 168 186 183 188 174 76 172 182 25 24 359 335 5 332 318 333 293 310 282 263 269 163 149 144 146
300 296 291 292 282 288 316 302 293 301 306 16 143 343 174 180 8 172 170 160 187 179 124 190 184 170 14 205 352 7 353 320 334 329 350 347 319 314 295 249 242 193 140 140 141
295 292 287 303 301 260 278 286 307 305 297 323 334 319 171 181 191 281 171 176 186 198 205 212 213 340 214 347 9 320 312 210 199 304 321 355 340 9 21 190 215 230 141 134 132
289 283 281 277 298 288 283 294 300 289 337 317 320 318 255 213 204 207 175 194 216 251 280 225 213 214 320 271 300 338 343 243 279 300 291 328 23 6 129 111 144 189 151 134 127
285 276 281 280 266 268 283 288 281 293 296 333 328 322 281 226 244 195 249 279 202 209 267 312 340 207 223 203 233 303 283 291 253 303 238 260 317 312 178 163 179 181 129 113 121
285 295 289 277 273 264 275 269 280 289 305 310 314 316 304 266 301 214 232 273 254 198 235 294 315 294 334 194 191 290 296 226 259 224 216 329 315 159 210 53 94 102 109 111 118
291 278 268 293 276 270 267 265 274 276 304 301 293 304 303 288 246 277 258 277 289 262 202 258 304 306 309 301 296 281 269 280 263 267 283 295 324 310 269 245 79 87 93 101 115
289 287 297 298 275 267 261 269 272 263 298 289 288 289 296 294 285 280 293 291 303 300 291 287 292 306 292 321 302 263 217 237 250 262 270 299 306 322 225 216 79 97 101 106 114
277 276 287 277 269 271 267 270 253 268 285 290 276 285 289 289 285 296 290 291 293 290 295 293 294 288 204 331 147 187 273 278 272 264 252 286 317 139 149 160 72 73 66 75 102
279 271 285 275 272 271 275 266 261 263 275 279 282 276 276 287 293 287 290 271 302 301 294 289 297 297 280 277 253 307 290 265 252 243 255 289 296 131 158 96 32 28 356 350 355
275 275 285 270 264 260 270 272 273 261 262 274 273 272 282 285 275 281 282 291 295 293 297 285 276 267 266 201 316 287 291 291 273 265 270 329 41 80 331 353 43 46 38 27 9
270 268 297 280 272 265 263 265 272 272 275 276 269 269 272 276 272 270 275 271 291 294 289 282 272 267 263 261 283 267 303 243 279 280 277 319 290 296 305 301 309 48 42 35 4
277 282 288 273 281 281 270 269 270 273 277 275 279 272 270 270 268 267 264 279 273 297 284 274 276 276 268 268 271 280 262 274 258 281 282 307 299 293 111 104 102 64 55 40 30
302 287 281 276 279 279 277 277 275 274 272 288 279 277 281 274 284 279 275 284 272 289 243 278 273 277 274 269 275 272 274 284 280 286 288 293 299 262 227 211 119 32 36 19 14